Hourly Weather Roundup
Issued by NWS Central Illinois

Home | Current Version | Previous Version | Graphics & Text | Print | Product List | Glossary On
Versions: 1 2 3 4 5 6 7 8 9 10 11 12 13 14 15 16 17 18 19 20 21 22 23 24 25 26 27 28 29 30 31 32 33 34 35 36 37 38 39 40 41 42 43 44 45 46 47 48 49 50
000
NZUS43 KILX 202010
HWRILX

AREA WEATHER ROUNDUP
NATIONAL WEATHER SERVICE, LINCOLN IL
200 PM CST FRI JAN 20 2017


CITY           SKY/WX    TMP DP  RH WIND       PRES   REMARKS
BLOOMINGTON    CLOUDY    47  46  97 S10       29.62R FOG
CHAMPAIGN      CLOUDY    50  48  93 S8        29.61F
DANVILLE       RAIN      48  48  97 S6        29.61F
DECATUR        CLOUDY    52  50  93 S10       29.61R
EFFINGHAM      CLOUDY    54  51  90 SE6       29.64S
FLORA          CLOUDY    58  52  82 S10       29.63S
GALESBURG      CLOUDY    45  44  98 S5        29.57F
JACKSONVILLE   CLOUDY    49  48  99 CALM      29.57F FOG
LACON          CLOUDY    43  43  99 CALM      29.60R
LAWRENCEVILLE  CLOUDY    58  52  80 S13       29.65F
LITCHFIELD     CLOUDY    50  48  95 S13       29.59F
$$


CITY           SKY/WX    TMP DP  RH WIND       PRES   REMARKS
LINCOLN        CLOUDY    49  49 100 S8        29.60S FOG
MACOMB         CLOUDY    46  46 100 S8        29.60S
MATTOON        CLOUDY    51  48  89 S10       29.61F
MT CARMEL AP   CLOUDY    58  50  77 S12       29.64F
OLNEY-NOBLE AP CLOUDY    55  54  94 S9        29.63F
PARIS          CLOUDY    51  49  93 S14       29.64F
PEORIA         CLOUDY    47  45  93 S8        29.59F
PONTIAC        CLOUDY    48  48 100 S8        29.61S
RANTOUL        CLOUDY    50  49  97 S6        29.62S FOG
SPRINGFIELD    CLOUDY    51  49  92 CALM      29.60F FOG
TAYLORVILLE    CLOUDY    52  49  90 S9        29.59F
$$

...REGIONAL REPORTS...


CITY           SKY/WX    TMP DP  RH WIND       PRES   REMARKS
CHICAGO O`HARE CLOUDY    42  39  89 NE6       29.60F FOG
KANKAKEE       CLOUDY    46  45  98 CALM      29.62S
MOLINE         CLOUDY    45  41  86 SE3       29.57S
MOUNT STERLING CLOUDY    46  46 100 SE7       29.57S FOG
MOUNT VERNON   CLOUDY    56  52  86 S9        29.63S
PITTSFIELD     CLOUDY    49  49  99 CALM      29.58S FOG
QUINCY         CLOUDY    48  47  96 SE6       29.56S FOG
ROCKFORD       CLOUDY    41  39  93 E7        29.60F FOG
$$


CITY           SKY/WX    TMP DP  RH WIND       PRES   REMARKS
BURLINGTON     CLOUDY    43  43 100 CALM      29.57S FOG
CEDAR RAPIDS   CLOUDY    39  39 100 S7        29.55S FOG     WCI  34
DES MOINES     CLOUDY    43  41  93 E5        29.54F
KIRKSVILLE     CLOUDY    47  45  93 E7        29.53F
OTTUMWA        CLOUDY    43  41  93 SE6       29.55F FOG
ST LOUIS       CLOUDY    53  47  79 S10       29.58F
$$


CITY           SKY/WX    TMP DP  RH WIND       PRES   REMARKS
TERRE HAUTE    CLOUDY    53  46  77 S10       29.65F
EVANSVILLE     PTSUNNY   62  51  67 S12       29.66F
INDIANAPOLIS   CLOUDY    54  48  80 SW10      29.66F
LAFAYETTE      CLOUDY    49  46  90 S7        29.64S
MADISON        FOG       37  36  96 SE8       29.61F VSB 3/4 WCI  31
MILWAUKEE      FOG       38  37  97 E9        29.63F VSB 1/4 WCI  31
$$






USA.gov is the U.S. government's official web portal to all federal, state and local government web resources and services.